Time,TemperatureF,DewpointF,PressureIn,WindDirection,WindDirectionDegrees,WindSpeedMPH,WindSpeedGustMPH,Humidity,HourlyPrecipIn,Conditions,Clouds,dailyrainin,SoftwareType,DateUTC
2013-07-29 00:05:00,80.0,77.0,30.00,SSE,150,0.0,1.0,92,0.00,,,0.00,weatherlink.com 1.10,2013-07-29 05:05:00,
2013-07-29 00:20:00,79.7,77.0,30.00,SW,215,0.0,1.0,92,0.00,,,0.00,weatherlink.com 1.10,2013-07-29 05:20:00,
2013-07-29 00:35:00,79.4,77.0,30.00,SSE,165,0.0,0.0,93,0.00,,,0.00,weatherlink.com 1.10,2013-07-29 05:35:00,
2013-07-29 00:50:00,79.2,77.0,29.99,SSE,165,0.0,0.0,93,0.00,,,0.00,weatherlink.com 1.10,2013-07-29 05:50:00,
2013-07-29 01:04:00,79.0,77.0,29.99,SSE,165,0.0,1.0,94,0.00,,,0.00,weatherlink.com 1.10,2013-07-29 06:04:00,
2013-07-29 01:19:00,78.9,77.0,29.99,SSW,194,1.0,1.0,94,0.00,,,0.00,weatherlink.com 1.10,2013-07-29 06:19:00,
2013-07-29 01:34:00,79.0,77.0,30.00,SW,229,0.0,2.0,93,0.00,,,0.00,weatherlink.com 1.10,2013-07-29 06:34:00,
2013-07-29 01:49:00,78.7,77.0,30.00,SSW,205,0.0,1.0,94,0.00,,,0.00,weatherlink.com 1.10,2013-07-29 06:49:00,
2013-07-29 02:04:00,78.4,77.0,30.00,South,174,0.0,0.0,94,0.00,,,0.00,weatherlink.com 1.10,2013-07-29 07:04:00,
2013-07-29 02:19:00,78.4,77.0,30.00,South,173,0.0,1.0,95,0.00,,,0.00,weatherlink.com 1.10,2013-07-29 07:19:00,
2013-07-29 02:34:00,78.0,76.0,30.00,South,172,0.0,0.0,95,0.00,,,0.00,weatherlink.com 1.10,2013-07-29 07:34:00,
2013-07-29 02:49:00,77.7,76.0,30.00,South,172,0.0,0.0,95,0.00,,,0.00,weatherlink.com 1.10,2013-07-29 07:49:00,
2013-07-29 03:03:00,77.4,76.0,30.00,South,172,0.0,0.0,95,0.00,,,0.00,weatherlink.com 1.10,2013-07-29 08:03:00,
2013-07-29 03:18:00,77.2,76.0,30.00,South,170,0.0,0.0,96,0.00,,,0.00,weatherlink.com 1.10,2013-07-29 08:18:00,
2013-07-29 03:33:00,76.9,76.0,30.00,South,171,0.0,0.0,96,0.00,,,0.00,weatherlink.com 1.10,2013-07-29 08:33:00,
2013-07-29 03:48:00,76.8,76.0,30.00,South,170,0.0,0.0,96,0.00,,,0.00,weatherlink.com 1.10,2013-07-29 08:48:00,
2013-07-29 04:03:00,76.6,76.0,30.00,South,170,0.0,0.0,97,0.00,,,0.00,weatherlink.com 1.10,2013-07-29 09:03:00,
2013-07-29 04:18:00,76.5,76.0,30.00,South,171,0.0,0.0,97,0.00,,,0.00,weatherlink.com 1.10,2013-07-29 09:18:00,
2013-07-29 04:33:00,76.6,76.0,30.01,South,170,0.0,0.0,97,0.00,,,0.00,weatherlink.com 1.10,2013-07-29 09:33:00,
2013-07-29 04:48:00,76.4,75.0,30.01,South,171,0.0,0.0,97,0.00,,,0.00,weatherlink.com 1.10,2013-07-29 09:48:00,
2013-07-29 05:18:00,75.8,75.0,30.01,South,171,0.0,0.0,97,0.00,,,0.00,weatherlink.com 1.10,2013-07-29 10:18:00,
2013-07-29 05:33:00,75.9,75.0,30.02,South,170,0.0,0.0,97,0.00,,,0.00,weatherlink.com 1.10,2013-07-29 10:33:00,
2013-07-29 05:49:00,75.9,75.0,30.02,South,171,0.0,0.0,97,0.00,,,0.00,weatherlink.com 1.10,2013-07-29 10:49:00,
2013-07-29 06:04:00,75.7,75.0,30.02,South,170,0.0,0.0,97,0.00,,,0.00,weatherlink.com 1.10,2013-07-29 11:04:00,
2013-07-29 06:19:00,75.3,75.0,30.02,South,170,0.0,0.0,98,0.00,,,0.00,weatherlink.com 1.10,2013-07-29 11:19:00,
2013-07-29 06:34:00,75.8,75.0,30.03,South,171,0.0,0.0,98,0.00,,,0.00,weatherlink.com 1.10,2013-07-29 11:34:00,
2013-07-29 07:04:00,75.8,75.0,30.04,South,171,0.0,0.0,98,0.00,,,0.00,weatherlink.com 1.10,2013-07-29 12:04:00,
2013-07-29 07:19:00,76.5,76.0,30.04,South,170,0.0,0.0,97,0.00,,,0.00,weatherlink.com 1.10,2013-07-29 12:19:00,
2013-07-29 07:34:00,78.1,77.0,30.05,South,171,0.0,0.0,97,0.00,,,0.00,weatherlink.com 1.10,2013-07-29 12:34:00,
2013-07-29 07:49:00,79.1,78.0,30.05,South,170,0.0,0.0,96,0.00,,,0.00,weatherlink.com 1.10,2013-07-29 12:49:00,
2013-07-29 08:05:00,80.9,78.0,30.06,SW,225,0.0,1.0,90,0.00,,,0.00,weatherlink.com 1.10,2013-07-29 13:05:00,
2013-07-29 08:20:00,82.5,78.0,30.07,SW,214,3.0,5.0,85,0.00,,,0.00,weatherlink.com 1.10,2013-07-29 13:20:00,
2013-07-29 08:36:00,83.4,78.0,30.07,SW,214,3.0,4.0,84,0.00,,,0.00,weatherlink.com 1.10,2013-07-29 13:36:00,
2013-07-29 08:51:00,84.6,78.0,30.07,SSW,204,5.0,5.0,81,0.00,,,0.00,weatherlink.com 1.10,2013-07-29 13:51:00,
2013-07-29 09:07:00,84.4,78.0,30.07,SW,233,1.0,7.0,81,0.00,,,0.00,weatherlink.com 1.10,2013-07-29 14:07:00,
2013-07-29 09:37:00,85.3,78.0,30.07,SSW,201,4.0,10.0,78,0.00,,,0.00,weatherlink.com 1.10,2013-07-29 14:37:00,
2013-07-29 09:53:00,86.5,78.0,30.08,West,264,4.0,10.0,75,0.00,,,0.00,weatherlink.com 1.10,2013-07-29 14:53:00,
2013-07-29 10:08:00,86.5,77.0,30.08,SSW,198,4.0,8.0,73,0.00,,,0.00,weatherlink.com 1.10,2013-07-29 15:08:00,
2013-07-29 10:39:00,88.5,77.0,30.08,SSW,204,3.0,7.0,68,0.00,,,0.00,weatherlink.com 1.10,2013-07-29 15:39:00,
2013-07-29 10:54:00,89.3,76.0,30.08,SE,142,7.0,7.0,65,0.00,,,0.00,weatherlink.com 1.10,2013-07-29 15:54:00,
2013-07-29 11:09:00,89.1,75.0,30.08,WSW,245,2.0,8.0,64,0.00,,,0.00,weatherlink.com 1.10,2013-07-29 16:09:00,
2013-07-29 11:24:00,89.7,76.0,30.07,South,180,4.0,8.0,64,0.00,,,0.00,weatherlink.com 1.10,2013-07-29 16:24:00,
2013-07-29 11:39:00,90.2,75.0,30.07,SSW,200,4.0,9.0,62,0.00,,,0.00,weatherlink.com 1.10,2013-07-29 16:39:00,
2013-07-29 11:54:00,90.2,75.0,30.07,SW,215,2.0,11.0,62,0.00,,,0.00,weatherlink.com 1.10,2013-07-29 16:54:00,
2013-07-29 12:10:00,91.3,74.0,30.07,WSW,242,3.0,9.0,58,0.00,,,0.00,weatherlink.com 1.10,2013-07-29 17:10:00,
2013-07-29 12:25:00,91.2,76.0,30.07,SW,235,8.0,10.0,61,0.00,,,0.00,weatherlink.com 1.10,2013-07-29 17:25:00,
2013-07-29 12:56:00,90.9,74.0,30.07,WSW,242,4.0,14.0,58,0.00,,,0.00,weatherlink.com 1.10,2013-07-29 17:56:00,
2013-07-29 13:11:00,92.1,74.0,30.07,South,187,3.0,14.0,55,0.00,,,0.00,weatherlink.com 1.10,2013-07-29 18:11:00,
2013-07-29 13:27:00,92.2,73.0,30.07,West,264,4.0,13.0,53,0.00,,,0.00,weatherlink.com 1.10,2013-07-29 18:27:00,
2013-07-29 13:43:00,92.8,73.0,30.06,SW,217,6.0,13.0,53,0.00,,,0.00,weatherlink.com 1.10,2013-07-29 18:43:00,
2013-07-29 13:58:00,92.6,73.0,30.06,West,266,9.0,12.0,53,0.00,,,0.00,weatherlink.com 1.10,2013-07-29 18:58:00,
2013-07-29 14:13:00,92.8,73.0,30.06,SW,226,9.0,13.0,52,0.00,,,0.00,weatherlink.com 1.10,2013-07-29 19:13:00,
2013-07-29 14:29:00,92.8,73.0,30.06,WSW,248,9.0,13.0,53,0.00,,,0.00,weatherlink.com 1.10,2013-07-29 19:29:00,
2013-07-29 14:44:00,93.1,74.0,30.06,SW,236,7.0,13.0,54,0.00,,,0.00,weatherlink.com 1.10,2013-07-29 19:44:00,
2013-07-29 14:59:00,93.4,73.0,30.06,SW,217,13.0,13.0,51,0.00,,,0.00,weatherlink.com 1.10,2013-07-29 19:59:00,
2013-07-29 15:15:00,93.0,70.0,30.06,West,267,7.0,14.0,48,0.00,,,0.00,weatherlink.com 1.10,2013-07-29 20:15:00,
2013-07-29 15:30:00,92.9,72.0,30.05,South,188,4.0,13.0,50,0.00,,,0.00,weatherlink.com 1.10,2013-07-29 20:30:00,
2013-07-29 15:45:00,92.9,73.0,30.05,WSW,240,9.0,16.0,53,0.00,,,0.00,weatherlink.com 1.10,2013-07-29 20:45:00,
2013-07-29 16:00:00,92.9,74.0,30.05,South,186,6.0,11.0,55,0.00,,,0.00,weatherlink.com 1.10,2013-07-29 21:00:00,
2013-07-29 16:15:00,92.9,74.0,30.05,WSW,250,7.0,12.0,54,0.00,,,0.00,weatherlink.com 1.10,2013-07-29 21:15:00,
2013-07-29 16:30:00,92.5,73.0,30.05,SSE,158,9.0,16.0,53,0.00,,,0.00,weatherlink.com 1.10,2013-07-29 21:30:00,
2013-07-29 17:00:00,92.3,74.0,30.05,SSE,158,4.0,14.0,55,0.00,,,0.00,weatherlink.com 1.10,2013-07-29 22:00:00,
2013-07-29 17:16:00,91.7,73.0,30.05,SSE,148,13.0,13.0,54,0.00,,,0.00,weatherlink.com 1.10,2013-07-29 22:16:00,
2013-07-29 17:30:00,91.4,72.0,30.05,WSW,243,9.0,15.0,53,0.00,,,0.00,weatherlink.com 1.10,2013-07-29 22:30:00,
2013-07-29 17:45:00,91.6,73.0,30.05,SSW,194,4.0,11.0,54,0.00,,,0.00,weatherlink.com 1.10,2013-07-29 22:45:00,
2013-07-29 18:46:00,89.6,75.0,30.05,SSE,167,3.0,12.0,63,0.00,,,0.00,weatherlink.com 1.10,2013-07-29 23:46:00,
2013-07-29 19:01:00,88.8,76.0,30.05,SW,218,6.0,11.0,65,0.00,,,0.00,weatherlink.com 1.10,2013-07-30 00:01:00,
2013-07-29 19:17:00,87.7,75.0,30.05,SE,145,4.0,9.0,66,0.00,,,0.00,weatherlink.com 1.10,2013-07-30 00:17:00,
2013-07-29 19:31:00,86.9,75.0,30.05,South,169,2.0,9.0,68,0.00,,,0.00,weatherlink.com 1.10,2013-07-30 00:31:00,
2013-07-29 19:47:00,86.0,75.0,30.05,SW,223,4.0,8.0,69,0.00,,,0.00,weatherlink.com 1.10,2013-07-30 00:47:00,
2013-07-29 20:02:00,85.1,75.0,30.05,SSW,208,5.0,8.0,72,0.00,,,0.00,weatherlink.com 1.10,2013-07-30 01:02:00,
2013-07-29 20:17:00,84.1,75.0,30.05,SW,227,6.0,6.0,74,0.00,,,0.00,weatherlink.com 1.10,2013-07-30 01:17:00,
2013-07-29 20:32:00,83.3,75.0,30.06,SSW,208,3.0,6.0,77,0.00,,,0.00,weatherlink.com 1.10,2013-07-30 01:32:00,
2013-07-29 20:47:00,82.5,75.0,30.06,SSE,165,2.0,7.0,79,0.00,,,0.00,weatherlink.com 1.10,2013-07-30 01:47:00,
2013-07-29 21:32:00,80.9,76.0,30.07,South,184,1.0,4.0,84,0.00,,,0.00,weatherlink.com 1.10,2013-07-30 02:32:00,
2013-07-29 21:47:00,80.6,76.0,30.07,SSW,195,2.0,4.0,85,0.00,,,0.00,weatherlink.com 1.10,2013-07-30 02:47:00,
2013-07-29 22:19:00,80.1,76.0,30.09,SSE,166,0.0,2.0,87,0.00,,,0.00,weatherlink.com 1.10,2013-07-30 03:19:00,
2013-07-29 22:49:00,79.4,76.0,30.09,South,174,0.0,1.0,88,0.00,,,0.00,weatherlink.com 1.10,2013-07-30 03:49:00,
2013-07-29 23:04:00,79.1,76.0,30.09,SW,224,1.0,1.0,89,0.00,,,0.00,weatherlink.com 1.10,2013-07-30 04:04:00,
2013-07-29 23:19:00,78.9,76.0,30.09,SSW,204,0.0,2.0,90,0.00,,,0.00,weatherlink.com 1.10,2013-07-30 04:19:00,
2013-07-29 23:34:00,78.5,75.0,30.10,SSE,159,0.0,1.0,90,0.00,,,0.00,weatherlink.com 1.10,2013-07-30 04:34:00,
2013-07-29 23:49:00,78.2,75.0,30.10,SSE,152,1.0,1.0,91,0.00,,,0.00,weatherlink.com 1.10,2013-07-30 04:49:00,